• In Netherlands
  • List of Countries
  • For 7 days
  • Water Temperature
  • Satellite Maps
  • Weather Map
  • Weather Widgets
  • user-avatar
    Login

    Hourly Weather Salta

    Today, 25 April, Tuesday

    Time Temperature Precipitation Wind Pressure Humidity
    00:00 +16°C° 0 mm 1 mps 647 mmHg 81%
    01:00 +16°C° 0 mm 1 mps 647 mmHg 77%
    02:00 +16°C° 0 mm 1 mps 647 mmHg 73%
    03:00 +16°C° 0 mm 2 mps 646 mmHg 70%
    04:00 +16°C° 0 mm 2 mps 646 mmHg 67%
    05:00 +16°C° 0 mm 2 mps 646 mmHg 64%
    06:00 +17°C° 0 mm 2 mps 647 mmHg 60%
    07:00 +18°C° 0 mm 2 mps 647 mmHg 57%
    08:00 +19°C° 0 mm 2 mps 648 mmHg 54%
    09:00 +21°C° 0 mm 2 mps 648 mmHg 48%
    10:00 +24°C° 0 mm 2 mps 648 mmHg 42%
    11:00 +26°C° 0 mm 2 mps 648 mmHg 37%
    12:00 +27°C° 0 mm 3 mps 648 mmHg 32%
    13:00 +29°C° 0 mm 4 mps 647 mmHg 28%
    14:00 +30°C° 0 mm 4 mps 647 mmHg 24%
    15:00 +28°C° 0 mm 4 mps 647 mmHg 30%
    16:00 +27°C° 0 mm 4 mps 647 mmHg 37%
    17:00 +26°C° 0 mm 4 mps 647 mmHg 43%
    18:00 +22°C° 0.3 mm 3 mps 648 mmHg 55%
    19:00 +20°C° 0.3 mm 2 mps 648 mmHg 66%
    20:00 +17°C° 0.3 mm 2 mps 649 mmHg 78%
    21:00 +17°C° 0.5 mm 2 mps 650 mmHg 78%
    22:00 +17°C° 0.5 mm 2 mps 650 mmHg 79%
    23:00 +16°C° 0.5 mm 2 mps 651 mmHg 80%

    Tomorrow, 26 April, Wednesday

    Time Temperature Precipitation Wind Pressure Humidity
    00:00 +16°C° 0.1 mm 2 mps 651 mmHg 81%
    01:00 +14°C° 0.1 mm 3 mps 651 mmHg 82%
    02:00 +14°C° 0.1 mm 3 mps 651 mmHg 83%
    03:00 +13°C° 0.2 mm 3 mps 651 mmHg 84%
    04:00 +13°C° 0.2 mm 3 mps 651 mmHg 84%
    05:00 +12°C° 0.2 mm 3 mps 651 mmHg 84%
    06:00 +12°C° 0 mm 3 mps 651 mmHg 82%
    07:00 +13°C° 0 mm 3 mps 652 mmHg 79%
    08:00 +13°C° 0 mm 3 mps 652 mmHg 76%
    09:00 +14°C° 0 mm 3 mps 653 mmHg 71%
    10:00 +16°C° 0 mm 3 mps 653 mmHg 65%
    11:00 +15°C° 0 mm 4 mps 653 mmHg 59%
    12:00 +17°C° 0 mm 3 mps 652 mmHg 55%
    13:00 +17°C° 0 mm 3 mps 651 mmHg 51%
    14:00 +18°C° 0 mm 3 mps 651 mmHg 47%
    15:00 +17°C° 0 mm 3 mps 651 mmHg 51%
    16:00 +16°C° 0 mm 2 mps 651 mmHg 55%
    17:00 +16°C° 0 mm 2 mps 650 mmHg 58%
    18:00 +14°C° 0 mm 2 mps 651 mmHg 65%
    19:00 +13°C° 0 mm 1 mps 651 mmHg 71%
    20:00 +11°C° 0 mm 1 mps 651 mmHg 77%
    21:00 +11°C° 0 mm 1 mps 652 mmHg 78%
    22:00 +10°C° 0 mm 1 mps 652 mmHg 79%
    23:00 +10°C° 0 mm 1 mps 652 mmHg 79%

    Day after tomorrow, 27 April, Thursday

    Time Temperature Precipitation Wind Pressure Humidity
    00:00 +9°C° 0 mm 1 mps 652 mmHg 80%
    01:00 +9°C° 0 mm 1 mps 652 mmHg 80%
    02:00 +9°C° 0 mm 1 mps 651 mmHg 80%
    03:00 +9°C° 0 mm 1 mps 651 mmHg 81%
    04:00 +8°C° 0 mm 1 mps 651 mmHg 81%
    05:00 +8°C° 0 mm 1 mps 651 mmHg 81%
    06:00 +10°C° 0 mm 1 mps 652 mmHg 75%
    07:00 +11°C° 0 mm 1 mps 653 mmHg 69%
    08:00 +13°C° 0 mm 1 mps 653 mmHg 63%
    09:00 +15°C° 0 mm 2 mps 654 mmHg 56%
    10:00 +17°C° 0 mm 2 mps 654 mmHg 49%
    11:00 +18°C° 0 mm 3 mps 654 mmHg 42%
    12:00 +19°C° 0 mm 3 mps 653 mmHg 40%
    13:00 +20°C° 0 mm 3 mps 653 mmHg 39%
    14:00 +20°C° 0 mm 4 mps 652 mmHg 37%
    15:00 +20°C° 0 mm 3 mps 651 mmHg 39%
    16:00 +19°C° 0 mm 3 mps 651 mmHg 42%
    17:00 +18°C° 0 mm 3 mps 651 mmHg 45%
    18:00 +16°C° 0 mm 2 mps 651 mmHg 54%
    19:00 +13°C° 0 mm 2 mps 651 mmHg 64%
    20:00 +11°C° 0 mm 1 mps 651 mmHg 73%
    21:00 +10°C° 0 mm 1 mps 651 mmHg 75%
    22:00 +10°C° 0 mm 1 mps 651 mmHg 76%
    23:00 +9°C° 0 mm 1 mps 651 mmHg 78%

    28 April, Friday

    Time Temperature Precipitation Wind Pressure Humidity
    00:00 +9°C° 0 mm 1 mps 651 mmHg 78%
    01:00 +9°C° 0 mm 1 mps 651 mmHg 77%
    02:00 +9°C° 0 mm 1 mps 650 mmHg 77%
    03:00 +9°C° 0 mm 1 mps 650 mmHg 75%
    04:00 +9°C° 0 mm 1 mps 650 mmHg 74%
    05:00 +8°C° 0 mm 1 mps 651 mmHg 73%
    06:00 +10°C° 0 mm 1 mps 652 mmHg 66%
    07:00 +13°C° 0 mm 1 mps 653 mmHg 60%
    08:00 +15°C° 0 mm 1 mps 654 mmHg 53%
    09:00 +18°C° 0 mm 1 mps 655 mmHg 46%
    10:00 +19°C° 0 mm 2 mps 656 mmHg 38%
    11:00 +21°C° 0 mm 2 mps 656 mmHg 31%
    12:00 +23°C° 0 mm 2 mps 656 mmHg 31%
    13:00 +24°C° 0 mm 3 mps 655 mmHg 31%
    14:00 +24°C° 0 mm 3 mps 655 mmHg 30%
    15:00 +22°C° 0 mm 3 mps 655 mmHg 35%
    16:00 +21°C° 0 mm 3 mps 654 mmHg 39%
    17:00 +20°C° 0 mm 3 mps 654 mmHg 43%
    18:00 +18°C° 0 mm 2 mps 654 mmHg 54%
    19:00 +15°C° 0 mm 2 mps 654 mmHg 65%
    20:00 +12°C° 0 mm 1 mps 654 mmHg 76%
    21:00 +12°C° 0 mm 1 mps 654 mmHg 76%
    22:00 +11°C° 0 mm 1 mps 654 mmHg 77%
    23:00 +11°C° 0 mm 1 mps 654 mmHg 77%

    29 April, Saturday

    Time Temperature Precipitation Wind Pressure Humidity
    00:00 +10°C° 0 mm 1 mps 653 mmHg 77%
    01:00 +10°C° 0 mm 1 mps 653 mmHg 76%
    02:00 +10°C° 0 mm 1 mps 652 mmHg 75%
    03:00 +9°C° 0 mm 1 mps 652 mmHg 75%
    04:00 +9°C° 0 mm 1 mps 652 mmHg 75%
    05:00 +9°C° 0 mm 1 mps 652 mmHg 74%
    06:00 +11°C° 0 mm 1 mps 653 mmHg 68%
    07:00 +13°C° 0 mm 1 mps 654 mmHg 62%
    08:00 +15°C° 0 mm 1 mps 655 mmHg 56%
    09:00 +17°C° 0 mm 2 mps 655 mmHg 49%
    10:00 +19°C° 0 mm 2 mps 656 mmHg 43%
    11:00 +21°C° 0 mm 3 mps 656 mmHg 36%
    12:00 +21°C° 0 mm 3 mps 655 mmHg 35%
    13:00 +22°C° 0 mm 3 mps 654 mmHg 35%
    14:00 +24°C° 0 mm 3 mps 653 mmHg 35%
    15:00 +22°C° 0 mm 3 mps 653 mmHg 39%
    16:00 +21°C° 0 mm 3 mps 653 mmHg 43%
    17:00 +20°C° 0 mm 3 mps 653 mmHg 47%
    18:00 +17°C° 0 mm 2 mps 653 mmHg 57%
    19:00 +15°C° 0 mm 2 mps 652 mmHg 68%
    20:00 +13°C° 0 mm 1 mps 652 mmHg 78%
    21:00 +12°C° 0 mm 1 mps 652 mmHg 79%
    22:00 +11°C° 0 mm 1 mps 652 mmHg 81%
    23:00 +11°C° 0 mm 1 mps 652 mmHg 83%

    30 April, Sunday

    Time Temperature Precipitation Wind Pressure Humidity
    00:00 +10°C° 0 mm 1 mps 651 mmHg 83%
    01:00 +10°C° 0 mm 1 mps 651 mmHg 83%
    02:00 +10°C° 0 mm 1 mps 651 mmHg 83%
    03:00 +10°C° 0 mm 1 mps 651 mmHg 81%
    04:00 +10°C° 0 mm 1 mps 651 mmHg 80%
    05:00 +10°C° 0 mm 1 mps 650 mmHg 79%
    06:00 +11°C° 0 mm 1 mps 651 mmHg 73%
    07:00 +13°C° 0 mm 1 mps 652 mmHg 67%
    08:00 +15°C° 0 mm 1 mps 653 mmHg 61%
    09:00 +18°C° 0 mm 1 mps 654 mmHg 54%
    10:00 +19°C° 0 mm 2 mps 654 mmHg 46%
    11:00 +21°C° 0 mm 2 mps 654 mmHg 39%
    12:00 +23°C° 0 mm 2 mps 654 mmHg 38%
    13:00 +22°C° 0 mm 3 mps 653 mmHg 38%
    14:00 +24°C° 0 mm 3 mps 653 mmHg 37%
    15:00 +22°C° 0 mm 3 mps 653 mmHg 41%
    16:00 +21°C° 0 mm 3 mps 653 mmHg 46%
    17:00 +21°C° 0 mm 2 mps 652 mmHg 50%
    18:00 +18°C° 0 mm 2 mps 652 mmHg 60%
    19:00 +16°C° 0 mm 1 mps 652 mmHg 71%
    20:00 +13°C° 0 mm 1 mps 652 mmHg 81%
    21:00 +12°C° 0 mm 1 mps 652 mmHg 81%
    22:00 +12°C° 0 mm 1 mps 652 mmHg 81%
    23:00 +11°C° 0 mm 1 mps 652 mmHg 81%
    Show more